Weather History for Hyannis, MA

Change the Weather History Date:

Wednesday, January 1, 2014

  Actual Average Record
Temperature  
Mean Temperature 24 °F -  
Max Temperature 30 °F 40 °F 58 °F (1966)
Min Temperature 19 °F 23 °F -2 °F (1964)
Degree Days  
Heating Degree Days 40    
Moisture  
Dew Point 9 °F    
Average Humidity 52    
Maximum Humidity 75    
Minimum Humidity 38    
Precipitation  
Precipitation 0.00 in - - ()
Sea Level Pressure  
Sea Level Pressure 30.32 in    
Wind  
Wind Speed 8 mph (WNW)    
Max Wind Speed 15 mph    
Max Gust Speed 23 mph    
Visibility 10 miles    
Events      
Averages and records for this station are not official NWS values.
T = Trace of Precipitation, MM = Missing Value Source: NWS Daily Summary

Daily Weather History Graph

Daily Weather History Graph

Search for Another Location

Airport:

Trip Planner

Search our weather history database for the weather conditions in past years. The results will help you decide how hot, cold, wet, or windy it might be!

Date:

Astronomy

Jan. 01, 2014 Rise Set
Actual Time 7:08 AM EST 4:21 PM EST
Civil Twilight 6:36 AM EST 4:52 PM EST
Nautical Twilight 6:01 AM EST 5:27 PM EST
Astronomical Twilight 5:28 AM EST 6:01 PM EST
Moon 6:54 AM EST (1/1) 5:03 PM EST (1/1)
Length of Visible Light 10h 16m
Length of Day
9h 13m
New Moon, 0% of the Moon is Illuminated
Jan 1
New Moon
Jan 7
First Quarter
Jan 15
Full
Jan 24
Last Quarter
Jan 30
New

Hourly Weather History & Observations

Time (EST) Temp. Windchill Dew Point Humidity Pressure Visibility Wind Dir Wind Speed Gust Speed Precip Events Conditions
12:56 AM 24.1 °F 14.4 °F 12.9 °F 62% 30.19 in 10.0 mi West 9.2 mph - N/A   Clear
1:56 AM 25.0 °F 14.2 °F 9.0 °F 51% 30.21 in 10.0 mi NW 11.5 mph 21.9 mph N/A   Clear
2:56 AM 24.1 °F 13.1 °F 6.1 °F 46% 30.25 in 10.0 mi WNW 11.5 mph 21.9 mph N/A   Clear
3:56 AM 23.0 °F 13.1 °F 6.1 °F 48% 30.26 in 10.0 mi West 9.2 mph 18.4 mph N/A   Clear
4:56 AM 23.0 °F 11.7 °F 3.9 °F 44% 30.28 in 10.0 mi WNW 11.5 mph 18.4 mph N/A   Clear
5:56 AM 23.0 °F 12.4 °F 3.9 °F 44% 30.31 in 10.0 mi WNW 10.4 mph - N/A   Clear
6:56 AM 21.0 °F 14.6 °F 5.0 °F 50% 30.34 in 10.0 mi WNW 4.6 mph - N/A   Clear
7:56 AM 23.0 °F - 6.1 °F 48% 30.35 in 10.0 mi Calm Calm - N/A   Clear
8:56 AM 24.1 °F 17.0 °F 8.1 °F 51% 30.36 in 10.0 mi West 5.8 mph - N/A   Clear
9:56 AM 27.0 °F 16.7 °F 7.0 °F 43% 30.37 in 10.0 mi WNW 11.5 mph - N/A   Clear
10:56 AM 28.0 °F 17.5 °F 6.1 °F 39% 30.35 in 10.0 mi West 12.7 mph 23.0 mph N/A   Clear
11:56 AM 28.9 °F 17.7 °F 6.1 °F 38% 30.33 in 10.0 mi WNW 15.0 mph 23.0 mph N/A   Clear
12:56 PM 30.0 °F 20.5 °F 7.0 °F 38% 30.32 in 10.0 mi West 11.5 mph - N/A   Clear
1:56 PM 30.0 °F 21.1 °F 7.0 °F 38% 30.32 in 10.0 mi West 10.4 mph - N/A   Clear
2:56 PM 30.0 °F 22.4 °F 7.0 °F 38% 30.33 in 10.0 mi West 8.1 mph - N/A   Clear
3:56 PM 28.9 °F 21.9 °F 7.0 °F 40% 30.33 in 10.0 mi WNW 6.9 mph - N/A   Clear
4:56 PM 27.0 °F - 7.0 °F 43% 30.34 in 10.0 mi Calm Calm - N/A   Clear
5:56 PM 21.9 °F - 9.0 °F 58% 30.35 in 10.0 mi Calm Calm - N/A   Clear
6:56 PM 19.0 °F - 10.0 °F 68% 30.36 in 10.0 mi Calm Calm - N/A   Partly Cloudy
7:56 PM 21.0 °F - 12.9 °F 71% 30.36 in 10.0 mi Calm Calm - N/A   Overcast
8:56 PM 21.9 °F - 15.1 °F 75% 30.37 in 10.0 mi Calm Calm - N/A   Overcast
9:56 PM 21.0 °F - 14.0 °F 74% 30.36 in 10.0 mi Calm Calm - N/A   Mostly Cloudy
10:56 PM 23.0 °F - 16.0 °F 74% 30.37 in 10.0 mi Calm Calm - N/A   Overcast
11:56 PM 24.1 °F - 17.1 °F 75% 30.35 in 10.0 mi Calm Calm - N/A   Overcast